Сагареджо

Грузия     41°44′12″N   45°19′33″E
В апреле 2022 года жителям России запретили посещать сайт meteo.paraplan.net по решению Генеральной прокуратуры. Аудитория сайта уменьшилась в 10 раз. Владельцы сайта не видят смысла в поддержке погодного сервера в таких условиях. Сайт будет закрыт в октябре.
темп.,
°C
ветер,
м/с
пор.,
м/с
влажн.,
%
обл.,
%
осадки,
мм/ч
давл.,
гПа
погр.,
м
4 октября, вт
вт401:00+16св33605 0.0 101429
04:00+15в337081 0.0 101668
07:00+15вюв2489100 0.4 1017356
10:00+17вюв367952 0.5 1018719
13:00+19юв336498 0.2 10171096
16:00+23юв33455 0.2 10151110
19:00+18в11645 0.0 101611
22:00+16ссв217381 0.0 101811
5 октября, ср
ср501:00+16св217192 0.0 101911
04:00+15св227616 0.0 102011
07:00+15св11790 0.0 102011
10:00+21юв33525 0.0 1019517
13:00+26ююв32335 0.0 10181085
16:00+28ююв322899 0.0 10161819
19:00+20зсз2248100 0.0 101816
22:00+19с2251100 0.0 101820
6 октября, чт
чт601:00+18всв2256100 0.0 101913
04:00+16всв2268100 0.0 102021
07:00+15св328030 0.8 102122
10:00+20в47426 0.8 10211163
13:00+22вюв5537100 0.0 10191643
16:00+23вюв443722 0.0 10171723
19:00+17всв115449 0.0 101912
22:00+17с226281 0.0 102019
7 октября, пт
пт701:00+17всв1262100 0.2 102065
04:00+15вюв2377100 0.3 1021206
07:00+15в227797 0.0 1022137
10:00+16вюв356679 0.0 1022930
13:00+19вюв455386 0.1 10221444
16:00+18юв3458100 0.3 10211024
19:00+16юв236398 0.1 1022125
22:00+15в236886 0.1 1024187
8 октября, сб
сб801:00+15вюв256998 0.1 1024362
04:00+14в237599 0.1 1024210
07:00+13вюв2483100 0.2 1024343
10:00+15вюв356998 0.4 1025911
13:00+16вюв4464100 0.4 10231116
16:00+17вюв346199 0.6 10211196
19:00+15вюв2370100 0.1 1022225
22:00+15св227399 0.1 102253